Simultaneous Nadir Overpasses (SNOs) Predictions

Prediction of SNOs between NOAA-20 and METOP-C Satellite Orbit:

Table of predicted SNOs for the next 14.0 days since TLE Epoch: 2/19/2024
Index Date (NOAA-20) Time (NOAA-20) Lat,Lon (NOAA-20) SZA (NOAA-20 ) Date (METOP-C) Time (METOP-C) Lat,Lon (METOP-C) SZA (METOP-C ) Distance(km) Time Diff (sec)
1 03/04/2024 00:00:31 73.46, 170.24 80.09 03/04/2024 00:01:38 73.43, 172.74 79.91 79.18 67
2 03/04/2024 00:51:14 -73.40, -22.32 99.99 03/04/2024 00:52:22 -73.38, -20.05 100.15 72.06 68
3 03/04/2024 01:41:55 73.16, 145.53 79.74 03/04/2024 01:43:06 73.11, 146.69 79.60 37.82 71
4 03/04/2024 02:32:38 -73.11, -47.04 100.34 03/04/2024 02:33:50 -73.06, -46.10 100.46 30.90 72
5 03/04/2024 03:23:19 72.87, 120.79 79.38 03/04/2024 03:24:32 72.89, 120.87 79.38 3.43 73



Historial Predications of SNOs between NOAA-20 and METOP-C
